[[{"header":{"parameterUnit":"m.s-1","parameterCategory":1,"la1":30.2991,"la2":30.254,"lo1":-89.0895,"lo2":-89.0444,"dy":0.0017,"dx":0.0017,"nx":28,"ny":28,"refTime":"2024-06-28T03:00:00:Z","depth":0,"parameterNumber":2,"parameterNumberName":"U-component_of_WINDS"},"data":[0,0,0,0,0,0,0,0,0,0,0,0,0,0,0,0,0,0,0,0,0,0,0,0,0,0,0,0,0,0,0,0,0,0,0,0,0,0,0,0,0,0,0,0,0,0,0,0,0,0,0,0,0,0,0,0,0,0,2.4166,2.4167,0,2.4268,2.4269,2.4271,2.4249,2.4247,2.4245,2.4243,2.4348,2.4352,2.4357,0,0,0,0,0,0,0,0,0,0,0,0,0,2.3948,2.3952,2.4165,2.4167,2.4168,2.4268,2.427,2.4271,2.4249,2.4247,2.4244,2.4242,2.4346,2.4352,2.4357,0,0,0,0,0,0,0,0,0,0,0,0,0,2.4045,2.3953,2.4165,2.4169,2.4171,2.4268,2.427,2.4271,2.4249,2.4247,2.4244,2.4241,2.4344,2.4351,2.4358,2.4457,0,0,2.4379,2.4382,0,0,0,0,0,0,0,0,2.404,2.4053,2.4167,2.4169,2.4171,2.4243,2.4231,2.4334,2.425,2.422,2.4243,2.424,2.4315,2.4324,2.435,2.4462,2.4467,2.4379,2.4384,2.4386,2.4388,0,0,0,0,0,0,0,2.4033,2.4049,2.4206,2.4169,2.4171,2.4165,2.4176,2.425,2.4282,2.4222,2.4221,2.4233,2.4315,2.4343,2.4352,2.4468,2.4379,2.4385,2.4389,2.4392,2.4663,2.4666,0,0,0,0,0,0,2.4025,2.4043,2.4203,2.4209,2.4097,2.4171,2.4183,2.4223,2.4281,2.4287,2.4235,2.4232,2.4333,2.4344,2.4356,2.4473,2.4386,2.4393,2.4397,2.466,2.4664,2.4668,0,0,0,0,0,0,2.402,2.404,2.4199,2.4126,2.4146,2.4178,2.4222,2.4226,2.4254,2.4291,2.4297,2.4258,2.4331,2.4346,2.4431,2.4476,2.4396,2.4402,2.4657,2.4662,2.4666,2.471,0,0,0,0,0,0,2.4014,2.4038,2.4077,2.4127,2.415,2.4274,2.4225,2.423,2.4266,2.4262,2.4314,2.432,2.433,2.4421,2.4438,2.4484,2.4407,2.4653,2.4659,2.4664,2.4704,2.4715,2.4725,0,0,0,0,0,2.4007,2.4086,2.4079,2.4098,2.4199,2.4276,2.4289,2.4299,2.4269,2.4308,2.4332,2.4318,2.4469,2.443,2.4449,2.4498,2.465,2.4657,2.4664,2.47,2.4713,2.4724,0,0,0,0,0,0,2.4041,2.4093,2.4086,2.4184,2.4226,2.4272,2.4321,2.4314,2.4365,2.4359,2.4369,2.4381,2.4467,2.4492,2.4447,2.4595,2.4555,2.4566,2.4576,2.4589,2.4599,2.459,2.4413,0,0,0,0,0,2.406,2.4119,2.4161,2.4243,2.4264,2.4289,2.4324,2.4327,2.4371,2.4389,2.4419,2.4462,2.4518,2.4555,2.461,2.4708,2.4718,2.4751,2.4761,2.4769,2.4778,2.4828,2.4842,2.469,2.469,2.469,0,0,2.4099,2.4135,2.4172,2.4251,2.4284,2.4343,2.4305,2.437,2.4413,2.4399,2.448,2.4504,2.4552,2.4643,2.4685,2.4666,2.4822,2.4778,2.4784,2.4789,2.4837,2.4851,2.4864,2.4695,2.4694,2.4694,0,0,2.4201,2.4236,2.4306,2.4339,2.439,2.4405,2.4422,2.447,2.4485,2.4567,2.4556,2.4608,2.4706,2.474,2.477,2.4882,2.487,2.4899,2.4951,2.5,2.5012,2.5023,2.5059,2.5073,2.4908,2.4908,2.4908,0,2.4244,2.4333,2.4343,2.4409,2.4442,2.4432,2.4502,2.4534,2.4599,2.4622,2.46,2.4721,2.4753,2.485,2.4877,2.4903,2.492,2.4892,2.501,2.502,2.503,2.5065,2.5079,2.4911,2.4911,2.4911,2.491,0,2.4381,2.4444,2.4494,2.4556,2.4596,2.4664,2.4683,2.4722,2.4722,2.4739,2.4821,2.4859,2.4919,2.4943,2.4945,2.504,2.5026,2.5007,2.4966,2.5048,2.508,2.5094,2.4916,2.4915,2.4914,2.4913,0,0,2.4507,2.4573,2.4591,2.4617,2.4671,2.4719,2.4785,2.4843,2.4875,2.4921,2.4974,2.5057,2.5038,2.5072,2.5077,2.5121,2.5202,2.5096,2.5097,2.5111,2.5306,2.5317,2.5333,2.5196,2.5199,2.5201,2.53,0,2.4611,2.4727,2.4737,2.4841,2.4897,2.4887,2.4944,2.4982,2.5,2.5049,2.5069,2.5125,2.5099,2.5119,2.5161,2.5183,2.5241,2.5177,2.5244,2.5246,2.5229,2.5351,2.5364,2.5456,2.5314,2.5316,2.5318,0,2.4748,2.4796,2.4905,2.4948,2.4972,2.5023,2.5075,2.5123,2.5166,2.5175,2.5212,2.5211,2.5277,2.5235,2.5325,2.5281,2.5309,2.5324,2.5328,2.5332,2.5285,2.5355,2.5486,2.5499,2.5339,2.5337,2.5335,0,2.4824,2.4916,2.4992,2.5016,2.5069,2.5105,2.5128,2.5168,2.5202,2.5248,2.5269,2.5323,2.5351,2.5392,2.5405,2.5374,2.5493,2.5453,2.55,2.55,2.5524,2.5522,2.5658,2.5547,2.5547,2.5547,2.5547,0,2.4937,2.5004,2.5027,2.5074,2.5147,2.5157,2.5229,2.5251,2.5286,2.5335,2.5331,2.5377,2.5392,2.544,2.5451,2.5521,2.5535,2.5543,2.5545,2.5542,2.554,2.5559,2.5551,2.5551,2.555,2.5549,2.5548,0,2.5034,2.5053,2.5134,2.5177,2.519,2.5241,2.5277,2.5321,2.5338,2.5401,2.5416,2.5442,2.5499,2.5515,2.5584,2.5591,2.5672,2.567,2.5658,2.5657,2.5702,2.5696,2.5853,2.5872,2.5751,2.5752,2.5753,0,2.5103,2.5154,2.5202,2.5234,2.5259,2.5312,2.5346,2.5358,2.5393,2.5443,2.5481,2.5537,2.5581,2.5672,2.5697,2.5748,2.5745,2.5796,2.5752,2.5747,2.5741,2.5737,2.574,2.5803,2.5804,2.5805,2.5806,0,2.5223,2.523,2.5278,2.533,2.537,2.5412,2.5451,2.5478,2.5495,2.5535,2.5592,2.5627,2.5696,2.575,2.5802,2.5825,2.5818,2.582,2.5833,2.5829,2.5819,2.5822,2.5677,2.5816,2.5815,2.5814,2.5814,2.5813,2.5306,2.5349,2.5389,2.5443,2.5474,2.551,2.5552,2.5574,2.5622,2.5679,2.5683,2.5744,2.5783,2.5852,2.5878,2.5925,2.591,2.593,2.5934,2.5938,2.594,2.5814,2.5935,2.5935,2.5934,2.5934,2.5934,0,2.5423,2.5448,2.5497,2.5552,2.5594,2.5584,2.5626,2.5661,2.5715,2.5752,2.5796,2.5861,2.5913,2.5941,2.5993,2.6025,2.6023,2.6038,2.6034,2.6039,2.5952,2.5934,2.6039,2.6039,2.6039,2.6039,2.6039,2.6038,2.5488,2.556,2.557,2.5656,2.568,2.574,2.5764,2.5797,2.5826,2.5898,2.5941,2.596,2.5992,2.6046,2.6093,2.6099,2.6117,2.6134,2.6138,2.6056,2.6045,2.6035,2.6018,2.6138,2.6138,2.6221,2.6221,2.6222]},{"header":{"parameterUnit":"m.s-1","parameterCategory":1,"la1":30.2991,"la2":30.254,"lo1":-89.0895,"lo2":-89.0444,"dy":0.0017,"dx":0.0017,"nx":28,"ny":28,"refTime":"2024-06-28T03:00:00:Z","depth":0,"parameterNumber":3,"parameterNumberName":"V-component_of_WINDS"},"data":[0,0,0,0,0,0,0,0,0,0,0,0,0,0,0,0,0,0,0,0,0,0,0,0,0,0,0,0,0,0,0,0,0,0,0,0,0,0,0,0,0,0,0,0,0,0,0,0,0,0,0,0,0,0,0,0,0,0,3.0944,3.0946,0,3.1118,3.112,3.1122,3.1126,3.1124,3.1122,3.112,3.1297,3.1304,3.1311,0,0,0,0,0,0,0,0,0,0,0,0,0,3.0612,3.0618,3.0944,3.0946,3.0948,3.1118,3.112,3.1123,3.1127,3.1124,3.1122,3.1119,3.1295,3.1303,3.1311,0,0,0,0,0,0,0,0,0,0,0,0,0,3.0768,3.062,3.0944,3.0971,3.0975,3.1117,3.112,3.1123,3.1127,3.1124,3.1121,3.1118,3.1293,3.1302,3.1312,3.1439,0,0,3.1343,3.1347,0,0,0,0,0,0,0,0,3.076,3.0781,3.0965,3.0969,3.0974,3.1097,3.1068,3.1229,3.1128,3.1069,3.112,3.1116,3.1233,3.1248,3.1288,3.1447,3.1455,3.1344,3.135,3.1354,3.1357,0,0,0,0,0,0,0,3.0749,3.0773,3.1013,3.0967,3.0973,3.0973,3.0992,3.1099,3.1167,3.1074,3.1075,3.1096,3.1235,3.1278,3.1292,3.1457,3.1344,3.1353,3.1359,3.1363,3.1727,3.173,0,0,0,0,0,0,3.0733,3.0764,3.1007,3.1018,3.0857,3.0982,3.1003,3.1061,3.1166,3.1179,3.1098,3.1095,3.1262,3.128,3.1298,3.1452,3.1354,3.1364,3.137,3.1723,3.1728,3.1732,0,0,0,0,0,0,3.0726,3.0754,3.1,3.0891,3.0923,3.0991,3.1056,3.1066,3.1109,3.1184,3.1196,3.113,3.1261,3.1284,3.1403,3.1458,3.1368,3.1378,3.1719,3.1725,3.173,3.1762,0,0,0,0,0,0,3.0716,3.0752,3.0802,3.0893,3.0929,3.1104,3.106,3.1072,3.1126,3.1124,3.1217,3.1229,3.126,3.1388,3.1413,3.1471,3.1385,3.1714,3.1722,3.1728,3.1756,3.1768,3.1777,0,0,0,0,0,3.0704,3.0804,3.0804,3.0833,3.0992,3.1107,3.1127,3.1161,3.1131,3.1181,3.1229,3.1226,3.1448,3.1401,3.1429,3.149,3.1711,3.172,3.1727,3.1751,3.1765,3.1777,0,0,0,0,0,0,3.0718,3.0817,3.0818,3.095,3.102,3.1107,3.1172,3.1175,3.1255,3.125,3.1288,3.1309,3.1427,3.147,3.1416,3.1617,3.1576,3.159,3.1584,3.1598,3.1609,3.1596,3.1394,0,0,0,0,0,3.0737,3.0822,3.0903,3.1012,3.1047,3.1103,3.1154,3.1174,3.1248,3.1278,3.1334,3.1406,3.1491,3.1547,3.163,3.1762,3.1781,3.1818,3.1828,3.1837,3.1849,3.1919,3.1936,3.1758,3.1758,3.1758,0,0,3.0776,3.084,3.0892,3.1016,3.1073,3.1159,3.1128,3.1222,3.1286,3.1292,3.1408,3.1452,3.1534,3.1659,3.1717,3.1699,3.1902,3.1847,3.1853,3.1861,3.193,3.1946,3.1961,3.1764,3.1763,3.1762,0,0,3.0891,3.0949,3.1045,3.1102,3.1187,3.1224,3.1247,3.1333,3.1363,3.148,3.1485,3.1561,3.1709,3.1766,3.1815,3.1949,3.1949,3.1975,3.2031,3.21,3.2113,3.2126,3.2173,3.2189,3.1986,3.1986,3.1987,0,3.0929,3.1061,3.1094,3.1187,3.1241,3.1249,3.1346,3.14,3.1508,3.1545,3.1522,3.1706,3.1762,3.19,3.1932,3.1972,3.1998,3.1965,3.2109,3.2122,3.2134,3.2179,3.2197,3.1989,3.1989,3.1988,3.1988,0,3.1102,3.1193,3.126,3.1364,3.1425,3.152,3.1566,3.1624,3.1638,3.1676,3.1793,3.186,3.1956,3.199,3.2005,3.213,3.2116,3.2101,3.2061,3.2153,3.2196,3.2213,3.1993,3.1992,3.1991,3.199,0,0,3.1233,3.1352,3.1376,3.1423,3.1517,3.1587,3.1681,3.1775,3.1823,3.1897,3.1975,3.2099,3.2084,3.2139,3.216,3.222,3.2321,3.2198,3.22,3.2218,3.2461,3.2472,3.2491,3.2321,3.2324,3.2327,3.2454,0,3.1358,3.1526,3.1557,3.1703,3.1786,3.1794,3.1875,3.1941,3.1979,3.2054,3.2095,3.2181,3.2157,3.219,3.225,3.2296,3.237,3.2287,3.2394,3.2397,3.2373,3.2514,3.2526,3.2643,3.2471,3.2474,3.2476,0,3.1527,3.1604,3.1758,3.1839,3.1875,3.1948,3.2035,3.2107,3.2181,3.2204,3.2264,3.2277,3.2373,3.2328,3.246,3.2403,3.2448,3.2477,3.2483,3.2494,3.2442,3.2529,3.2681,3.2699,3.2503,3.2501,3.2499,0,3.1606,3.1748,3.1858,3.1898,3.1995,3.2046,3.2088,3.2159,3.2212,3.2288,3.2323,3.2409,3.2456,3.2522,3.2557,3.2521,3.2686,3.2644,3.2707,3.2706,3.2742,3.274,3.2904,3.2771,3.2771,3.2771,3.277,0,3.1742,3.1836,3.1894,3.1962,3.2067,3.2101,3.2203,3.2245,3.2307,3.2382,3.2394,3.2464,3.2506,3.2582,3.261,3.2715,3.2736,3.2756,3.2763,3.2756,3.2753,3.2786,3.2779,3.2776,3.2775,3.2774,3.2773,0,3.1848,3.1892,3.2012,3.2093,3.2116,3.2189,3.2258,3.2324,3.236,3.2455,3.2479,3.2536,3.2625,3.2667,3.2778,3.2796,3.2915,3.2916,3.289,3.2893,3.2953,3.2946,3.3144,3.3171,3.3021,3.3022,3.3024,0,3.1932,3.2005,3.2093,3.2144,3.2188,3.227,3.2325,3.236,3.2416,3.2504,3.2559,3.2648,3.2722,3.2864,3.2915,3.2999,3.3002,3.3066,3.3015,3.3005,3.3003,3.2998,3.3005,3.3075,3.3076,3.3078,3.3079,0,3.2077,3.2094,3.2172,3.2257,3.2322,3.239,3.2458,3.2499,3.2545,3.2607,3.2698,3.2755,3.2867,3.2956,3.3043,3.3086,3.309,3.3094,3.3113,3.3106,3.3088,3.3098,3.2915,3.3089,3.3088,3.3087,3.3087,3.3086,3.2175,3.2238,3.231,3.2396,3.245,3.2512,3.2577,3.2621,3.2698,3.2792,3.2808,3.2905,3.2975,3.3092,3.3138,3.3213,3.3199,3.3226,3.3233,3.324,3.3243,3.3076,3.323,3.3229,3.3229,3.3229,3.3229,0,3.2319,3.2365,3.2444,3.2537,3.2604,3.2601,3.2675,3.2731,3.2816,3.2881,3.2953,3.3057,3.3142,3.3199,3.3285,3.3335,3.3338,3.3356,3.3353,3.3362,3.3251,3.3226,3.3351,3.3351,3.3351,3.3351,3.3351,3.3351,3.2402,3.2509,3.2534,3.2668,3.2713,3.2808,3.285,3.2907,3.2959,3.3074,3.3145,3.3182,3.3243,3.3333,3.341,3.3425,3.3456,3.3474,3.3488,3.3383,3.337,3.3358,3.3334,3.348,3.3481,3.3592,3.3593,3.3594]}]]